Pensacola, FL

8:56 PM CST on February 09, 2016 (GMT -0600)
Pensacola Naval Air Station

Weather History for KNPA - October, 2012

Change the Weather History Date:

Friday, October 26, 2012

  Actual Average (KPNS) Record (KPNS)
Temperature  
Mean Temperature 74 °F 66 °F  
Max Temperature 86 °F 76 °F 87 °F (1984)
Min Temperature 62 °F 57 °F 39 °F (1980)
Degree Days  
Heating Degree Days 0 2  
Month to date heating degree days 22  
Since 1 July heating degree days 23  
Cooling Degree Days 9 4  
Month to date cooling degree days 163  
Year to date cooling degree days 2533  
Growing Degree Days 24 (Base 50)    
Moisture  
Dew Point 63 °F    
Average Humidity 76    
Maximum Humidity 97    
Minimum Humidity 44    
Precipitation  
Precipitation 0.00 in 0.17 in 1.96 in (1932)
Month to date precipitation 4.41  
Year to date precipitation 55.16  
Sea Level Pressure  
Sea Level Pressure 29.92 in    
Wind  
Wind Speed 5 mph (North)    
Max Wind Speed 10 mph    
Max Gust Speed -    
Visibility 10 miles    
Events      
T = Trace of Precipitation, MM = Missing Value Source: NWS Daily Summary

Daily Weather History Graph

Daily Weather History Graph

Search for Another Location

Airport or City:

Trip Planner

Search our weather history database for the weather conditions in past years. The results will help you decide how hot, cold, wet, or windy it might be!

Date:

Astronomy

Oct. 26, 2012 Rise Set
Actual Time 6:59 AM CDT 6:06 PM CDT
Civil Twilight 6:34 AM CDT 6:31 PM CDT
Nautical Twilight 6:06 AM CDT 6:59 PM CDT
Astronomical Twilight 5:38 AM CDT 7:27 PM CDT
Moon 4:13 PM CDT (10/26) 4:05 AM CDT (10/26)
Length of Visible Light 11h 56m
Length of Day
11h 07m
Waxing Gibbous, 91% of the Moon is Illuminated
Oct 26
Waxing Gibbous
Oct 29
Full
Nov 6
Last Quarter
Nov 13
New
Nov 20
First Quarter

Hourly Weather History & Observations

Time (CDT) Temp. Heat Index Dew Point Humidity Pressure Visibility Wind Dir Wind Speed Gust Speed Precip Events Conditions
12:56 AM 66.0 °F - 64.0 °F 93% 29.94 in 10.0 mi NNW 5.8 mph - N/A   Clear
1:56 AM 64.9 °F - 63.0 °F 93% 29.93 in 10.0 mi NNW 4.6 mph - N/A   Clear
2:56 AM 64.0 °F - 62.1 °F 93% 29.92 in 10.0 mi North 3.5 mph - N/A   Clear
3:56 AM 64.0 °F - 62.1 °F 93% 29.91 in 10.0 mi Calm Calm - N/A   Clear
4:56 AM 62.1 °F - 61.0 °F 96% 29.92 in 10.0 mi North 3.5 mph - N/A   Clear
5:56 AM 62.1 °F - 61.0 °F 96% 29.93 in 10.0 mi North 4.6 mph - N/A   Mostly Cloudy
5:59 AM 62.6 °F - 60.8 °F 94% 29.92 in 10.0 mi North 3.5 mph - N/A   Mostly Cloudy
6:56 AM 63.0 °F - 62.1 °F 97% 29.94 in 10.0 mi North 3.5 mph - N/A   Mostly Cloudy
7:56 AM 66.0 °F - 64.0 °F 93% 29.95 in 10.0 mi North 4.6 mph - N/A   Mostly Cloudy
8:56 AM 73.0 °F - 66.0 °F 79% 29.96 in 10.0 mi NNE 8.1 mph - N/A   Scattered Clouds
9:56 AM 78.1 °F - 66.9 °F 68% 29.97 in 10.0 mi Variable 5.8 mph - N/A   Scattered Clouds
10:56 AM 79.0 °F - 66.9 °F 66% 29.97 in 10.0 mi ENE 4.6 mph - N/A   Scattered Clouds
11:56 AM 81.0 °F 83.3 °F 66.9 °F 62% 29.96 in 10.0 mi ENE 6.9 mph - N/A   Scattered Clouds
12:56 PM 82.9 °F 84.6 °F 64.9 °F 54% 29.92 in 10.0 mi ENE 8.1 mph - N/A   Scattered Clouds
1:56 PM 82.9 °F 84.6 °F 64.9 °F 54% 29.89 in 10.0 mi NE 8.1 mph - N/A   Mostly Cloudy
2:56 PM 86.0 °F 86.3 °F 62.1 °F 44% 29.88 in 10.0 mi North 4.6 mph - N/A   Scattered Clouds
3:56 PM 84.9 °F 85.4 °F 62.1 °F 46% 29.87 in 10.0 mi Variable 4.6 mph - N/A   Scattered Clouds
4:56 PM 82.9 °F 82.8 °F 59.0 °F 44% 29.87 in 10.0 mi NNE 10.4 mph - N/A   Scattered Clouds
5:56 PM 78.1 °F - 62.1 °F 58% 29.88 in 10.0 mi North 3.5 mph - N/A   Scattered Clouds
6:56 PM 70.0 °F - 63.0 °F 78% 29.89 in 10.0 mi NNW 3.5 mph - N/A   Partly Cloudy
7:56 PM 70.0 °F - 63.0 °F 78% 29.88 in 10.0 mi NNW 3.5 mph - N/A   Partly Cloudy
8:56 PM 70.0 °F - 63.0 °F 78% 29.90 in 10.0 mi NNW 3.5 mph - N/A   Clear
9:56 PM 68.0 °F - 63.0 °F 84% 29.90 in 10.0 mi NW 4.6 mph - N/A   Clear
10:56 PM 66.9 °F - 63.0 °F 87% 29.90 in 10.0 mi NNW 4.6 mph - N/A   Clear
11:56 PM 69.1 °F - 63.0 °F 81% 29.89 in 10.0 mi NNW 6.9 mph - N/A   Clear